MST,Max TemperatureF,Mean TemperatureF,Min TemperatureF,Max Dew PointF,MeanDew PointF,Min DewpointF,Max Humidity, Mean Humidity, Min Humidity, Max Sea Level PressureIn, Mean Sea Level PressureIn, Min Sea Level PressureIn, Max VisibilityMiles, Mean VisibilityMiles, Min VisibilityMiles, Max Wind SpeedMPH, Mean Wind SpeedMPH, Max Gust SpeedMPH,PrecipitationIn, CloudCover, Events, WindDirDegrees
2012-11-1,36,33,30,36,32,23,100,92,66,30.11,29.99,29.89,10,3,0,21,12,29,0.00,6,Fog,115
2012-11-2,52,40,27,40,32,21,92,80,63,30.18,30.06,29.97,10,9,3,20,9,24,T,8,,288
2012-11-3,39,35,31,34,31,28,92,85,76,30.23,30.18,30.11,10,9,3,16,7,20,0.00,8,,2
2012-11-4,56,43,30,42,33,28,100,89,55,30.28,30.13,30.05,10,5,0,24,12,31,0.01,7,Fog-Rain,179
2012-11-5,58,46,34,41,34,28,100,80,50,30.24,30.07,29.87,10,8,0,32,11,44,0.00,5,Fog,239
2012-11-6,53,39,24,29,23,19,81,59,28,30.19,30.15,30.09,10,10,10,28,12,36,0.00,1,,301
2012-11-7,64,43,21,34,27,19,81,51,27,30.11,29.87,29.73,10,10,10,24,9,32,0.00,0,,153
2012-11-8,45,38,30,34,29,27,89,77,64,30.11,30.04,29.85,10,10,9,18,13,23,0.00,6,,27
2012-11-9,30,28,26,28,27,24,100,94,85,30.05,29.90,29.74,4,2,1,24,17,32,T,8,Rain,95
2012-11-10,28,18,8,25,16,2,92,86,76,29.99,29.79,29.67,10,7,0,31,19,38,0.05,7,Fog-Snow,333
2012-11-11,16,9,2,9,4,-3,87,77,70,30.19,30.03,29.87,10,10,8,33,22,43,T,5,Snow,287
2012-11-12,33,19,4,25,12,0,84,79,66,30.27,30.24,30.19,10,10,10,15,10,,0.00,1,,282
2012-11-13,45,33,17,32,25,17,85,75,56,30.25,30.22,30.18,10,10,10,14,5,,0.00,4,,276
2012-11-14,53,38,23,28,25,20,85,69,36,30.22,30.15,30.06,10,10,10,16,4,22,0.00,2,,272
2012-11-15,43,30,16,27,21,14,91,71,39,30.47,30.38,30.24,10,10,10,16,7,21,0.00,0,,156
2012-11-16,51,38,25,28,26,23,92,71,39,30.24,30.09,30.00,10,10,10,15,6,20,0.00,0,,155
2012-11-17,58,41,24,29,25,21,85,62,24,30.09,30.02,29.98,10,10,10,13,3,14,0.00,2,,45
2012-11-18,57,40,23,34,29,23,92,71,43,30.03,29.90,29.79,10,10,10,16,6,21,0.00,0,,132
2012-11-19,54,40,26,26,23,17,78,57,24,30.18,30.13,30.02,10,10,10,10,5,13,0.00,1,,194
2012-11-20,59,42,25,31,27,23,78,59,33,30.05,29.97,29.86,10,10,10,12,4,14,0.00,0,,217
2012-11-21,66,47,27,37,30,24,92,59,26,29.86,29.74,29.61,10,10,10,17,5,23,0.00,1,,252
2012-11-22,45,27,19,36,20,6,86,73,63,30.58,30.18,29.77,10,9,2,33,19,45,T,6,Snow,306
2012-11-23,32,19,6,15,10,2,83,67,43,30.62,30.46,30.17,10,10,10,16,7,20,0.00,2,,209
2012-11-24,51,33,15,33,22,12,92,70,45,30.13,29.98,29.87,10,10,10,29,11,36,0.00,3,,283
2012-11-25,36,22,8,25,17,3,91,79,64,30.38,30.15,30.00,10,10,10,16,9,20,0.00,4,,349
2012-11-26,38,18,-2,20,10,-4,91,78,48,30.47,30.36,30.21,10,10,2,17,6,21,0.00,2,,255
2012-11-27,41,24,11,23,13,7,92,76,36,30.32,30.23,30.17,10,10,10,13,4,,0.00,0,,294
2012-11-28,48,29,9,20,15,9,84,66,33,30.26,30.12,30.04,10,10,10,13,4,15,0.00,0,,283
2012-11-29,24,21,17,20,18,14,92,91,77,30.11,29.99,29.91,10,4,0,14,7,16,0.00,7,Fog,112
2012-11-30,35,26,16,26,19,14,92,82,64,30.08,29.91,29.73,10,8,5,14,7,18,0.00,0,,133